Back to catalog

DELTA 1 DEB

AliveSSO
NORAD 26823·DEBRIS·🇺🇸 United States

Launched Jun 12, 1975 from Vandenberg Space Force Base

Loading…

Next Passes (next 24 hours)

TLE

FreshSource: Space-Track

Epoch: Sep 14, 2026, 04:18 UTC

1 26823U 75052KD  26257.17939771  .00000941  00000-0  14104-2 0  9992
2 26823 100.0009 137.3689 0045682 281.5695 230.6901 13.55616149718650

Track DELTA 1 DEB in real time with AllMySat

Download on the App Store